Location: Buchberg
(46.9333°N, 15.8500°E)
Time: 19:46:31
(UTC+00:00)

AQUA - Pass Details

Date: 14 July 2020
Orbit: 701 x 703 km, 98.2° (Epoch: 05 August)

Event Time Altitude Azimuth Distance (km) Brightness Sun altitude
Rises 01:26:17 0° 9° (N) 3,104 8.4 -14.2°
Reaches altitude 10° 01:28:35 10° 5° (N) 2,181 7.3 -13.9°
Maximum altitude 01:33:14 53° 289° (WNW) 867 4.2 -13.5°
Enters shadow 01:36:23 20° 220° (SW) 1,613 5.0 -13.2°
